Change the Weather History Date:

Wednesday, January 22, 2014

  Actual Average Record
Temperature  
Mean Temperature 27 °F 35 °F  
Max Temperature 39 °F 45 °F 73 °F (1967)
Min Temperature 14 °F 25 °F 3 °F (1963)
Degree Days  
Heating Degree Days 38 30  
Month to date heating degree days 736 660  
Since 1 July heating degree days 2606 2277  
Cooling Degree Days 0 0  
Month to date cooling degree days 0 0  
Year to date cooling degree days 0 0  
Moisture  
Dew Point 11 °F    
Average Humidity 50    
Maximum Humidity 67    
Minimum Humidity 32    
Precipitation  
Precipitation 0.00 in 0.06 in 0.50 in (1982)
Month to date precipitation 0.57 1.45  
Year to date precipitation 0.57 1.45  
Sea Level Pressure  
Sea Level Pressure 30.22 in    
Wind  
Wind Speed 8 mph (WNW)    
Max Wind Speed 24 mph    
Max Gust Speed 34 mph    
Visibility 10 miles    
Events      
T = Trace of Precipitation, MM = Missing Value Source: NWS Daily Summary

Daily Weather History Graph

Daily Weather History Graph

Search for Another Location

Airport or City:

Trip Planner

Search our weather history database for the weather conditions in past years. The results will help you decide how hot, cold, wet, or windy it might be!

Date:

Astronomy

Jan. 22, 2014 Rise Set
Actual Time 7:27 AM CST 5:31 PM CST
Civil Twilight 6:59 AM CST 5:59 PM CST
Nautical Twilight 6:28 AM CST 6:31 PM CST
Astronomical Twilight 5:57 AM CST 7:02 PM CST
Moon 11:55 PM CST (1/22) 10:38 AM CST (1/22)
Length of Visible Light 11h 00m
Length of Day
10h 04m
Waning Gibbous, 65% of the Moon is Illuminated
Jan 22
Waning Gibbous
Jan 23
Last Quarter
Jan 30
New
Feb 6
First Quarter
Feb 14
Full

Hourly Weather History & Observations

Time (CST) Temp. Windchill Dew Point Humidity Pressure Visibility Wind Dir Wind Speed Gust Speed Precip Events Conditions
12:53 AM 18.0 °F 11.1 °F 3.9 °F 54% 30.18 in 10.0 mi SSE 4.6 mph - N/A   Clear
1:53 AM 17.1 °F 8.7 °F 5.0 °F 59% 30.16 in 10.0 mi South 5.8 mph - N/A   Clear
2:53 AM 18.0 °F - 5.0 °F 57% 30.16 in 10.0 mi Calm Calm - N/A   Clear
3:53 AM 15.1 °F - 6.1 °F 68% 30.16 in 10.0 mi Calm Calm - N/A   Clear
4:53 AM 18.0 °F 12.7 °F 6.1 °F 60% 30.15 in 10.0 mi SW 3.5 mph - N/A   Clear
5:53 AM 16.0 °F 7.4 °F 7.0 °F 68% 30.17 in 10.0 mi West 5.8 mph - N/A   Clear
6:53 AM 18.0 °F 11.1 °F 9.0 °F 68% 30.19 in 10.0 mi WSW 4.6 mph - N/A   Clear
7:53 AM 19.0 °F 12.3 °F 8.1 °F 62% 30.19 in 10.0 mi SW 4.6 mph - N/A   Partly Cloudy
8:53 AM 24.1 °F 17.0 °F 9.0 °F 53% 30.22 in 10.0 mi West 5.8 mph - N/A   Clear
9:53 AM 28.0 °F 21.7 °F 12.9 °F 53% 30.24 in 10.0 mi WNW 5.8 mph - N/A   Clear
10:53 AM 30.9 °F 24.3 °F 16.0 °F 54% 30.24 in 10.0 mi WNW 6.9 mph - N/A   Clear
11:53 AM 34.0 °F 26.0 °F 19.0 °F 54% 30.22 in 10.0 mi West 10.4 mph - N/A   Clear
12:53 PM 36.0 °F 25.3 °F 18.0 °F 48% 30.19 in 10.0 mi NW 19.6 mph 25.3 mph N/A   Clear
1:53 PM 39.0 °F 30.3 °F 18.0 °F 43% 30.17 in 10.0 mi NW 16.1 mph - N/A   Clear
2:53 PM 37.9 °F 28.2 °F 17.1 °F 43% 30.18 in 10.0 mi NNW 18.4 mph 24.2 mph N/A   Clear
3:53 PM 37.0 °F 29.8 °F 10.9 °F 34% 30.19 in 10.0 mi North 10.4 mph - N/A   Clear
4:53 PM 35.1 °F 27.9 °F 10.0 °F 35% 30.21 in 10.0 mi North 9.2 mph - N/A   Clear
5:53 PM 32.0 °F 26.4 °F 12.0 °F 44% 30.23 in 10.0 mi North 5.8 mph - N/A   Clear
6:53 PM 32.0 °F - 10.0 °F 40% 30.25 in 10.0 mi Calm Calm - N/A   Clear
7:53 PM 30.0 °F 26.5 °F 10.9 °F 45% 30.26 in 10.0 mi WNW 3.5 mph - N/A   Clear
8:53 PM 28.9 °F 25.2 °F 12.9 °F 51% 30.29 in 10.0 mi NW 3.5 mph - N/A   Clear
9:53 PM 30.9 °F 20.7 °F 14.0 °F 50% 30.31 in 10.0 mi NNW 13.8 mph - N/A   Clear
10:53 PM 28.9 °F 16.9 °F 14.0 °F 54% 30.34 in 10.0 mi North 17.3 mph 28.8 mph N/A   Clear
11:53 PM 26.1 °F 14.5 °F 15.1 °F 63% 30.39 in 10.0 mi North 13.8 mph 28.8 mph N/A   Scattered Clouds